Date,TemperatureHighF,TemperatureAvgF,TemperatureLowF,DewpointHighF,DewpointAvgF,DewpointLowF,HumidityHigh,HumidityAvg,HumidityLow,PressureMaxIn,PressureMinIn,WindSpeedMaxMPH,WindSpeedAvgMPH,GustSpeedMaxMPH,PrecipitationSumIn
2013-1-1,48,42,36,45,36,29,89,81,71,30.33,30.06,14,5,14,0.00
2013-1-2,42,36,30,32,29,24,82,74,61,30.38,30.28,13,3,13,0.00
2013-1-3,49,39,29,33,28,24,84,67,45,30.49,30.35,10,2,10,0.00
2013-1-4,50,45,40,38,34,30,80,66,51,30.54,30.39,8,2,8,0.00
2013-1-5,54,45,39,41,37,33,86,75,59,30.40,30.23,9,2,9,0.00
2013-1-6,56,44,34,34,29,25,83,60,32,30.43,30.31,10,2,10,0.00
2013-1-7,55,42,28,37,30,21,81,64,46,30.36,30.12,11,2,11,0.00
2013-1-8,48,47,45,46,42,33,95,83,63,30.14,29.99,8,2,8,0.02
2013-1-9,56,52,47,55,50,46,96,95,94,30.14,29.98,13,4,13,0.72
2013-1-10,58,54,49,56,50,44,96,84,70,30.02,29.95,7,3,7,0.07
2013-1-11,70,61,47,60,52,43,90,74,52,29.98,29.80,15,6,15,0.00
2013-1-12,65,55,37,63,50,30,94,85,70,30.00,29.74,15,6,15,0.02
2013-1-13,44,37,32,30,25,21,77,63,50,30.30,29.98,20,7,20,0.00
2013-1-14,44,36,30,27,23,19,67,60,46,30.36,30.23,10,3,10,0.00
2013-1-15,38,34,30,31,27,22,90,75,61,30.27,30.18,10,4,10,0.08
2013-1-16,50,38,27,30,25,20,75,59,39,30.33,30.19,11,2,11,0.02
2013-1-17,60,47,36,38,31,26,71,55,39,30.52,30.27,12,3,12,0.00
2013-1-18,61,47,31,38,33,26,80,61,38,30.53,30.29,12,3,13,0.00
2013-1-19,66,53,39,46,41,33,81,64,48,30.30,30.16,15,3,15,0.00
2013-1-20,68,52,38,49,41,34,83,66,38,30.24,30.10,10,2,10,0.00
2013-1-21,57,48,41,39,34,28,83,60,41,30.33,30.15,11,3,11,0.00
2013-1-22,65,52,38,48,39,28,77,62,51,30.34,30.20,9,2,9,0.00
2013-1-23,74,62,50,56,52,45,85,70,53,30.31,30.16,13,5,13,0.00
2013-1-24,80,65,53,60,54,44,87,68,47,30.21,30.06,13,3,13,0.00
2013-1-25,56,50,47,46,43,40,90,76,65,30.23,30.07,9,3,9,0.00
2013-1-26,55,50,46,49,45,39,93,82,71,30.25,30.12,8,2,8,0.00
2013-1-27,74,63,51,63,58,49,96,83,59,30.12,29.95,17,6,17,0.00
2013-1-28,78,71,66,66,64,62,90,79,62,30.03,29.88,19,8,19,0.00
2013-1-29,79,67,53,66,58,34,86,74,48,29.88,29.49,21,8,21,0.52
2013-1-30,55,49,43,36,32,24,67,52,33,30.12,29.73,22,10,22,0.00
2013-2-1,54,50,50,38,37,34,63,60,47,30.20,30.19,6,3,6,0.00
2013-2-2,66,58,45,47,39,33,75,51,31,30.36,30.19,14,2,14,0.00
2013-2-3,70,54,37,42,33,29,79,51,23,30.36,30.01,12,3,12,0.00
2013-2-4,73,62,54,58,50,31,85,65,39,30.02,29.81,13,5,13,0.01
2013-2-5,69,62,58,61,57,54,95,86,68,30.05,29.91,7,2,7,0.01
2013-2-6,74,64,58,64,58,55,95,81,54,30.04,29.88,14,5,14,0.01
2013-2-7,80,66,55,60,54,44,91,70,32,30.14,29.85,22,7,22,0.00
2013-2-8,64,54,44,45,34,22,74,49,22,30.29,30.14,10,3,10,0.00
2013-2-9,59,51,48,58,47,33,96,85,55,30.15,29.77,17,7,17,0.04
2013-2-10,67,59,49,64,43,29,97,58,26,30.04,29.68,26,4,26,0.94
2013-2-11,56,52,49,41,36,30,73,56,41,30.18,30.02,12,4,12,0.00
2013-2-12,52,48,43,48,44,38,91,85,74,30.08,29.88,18,4,18,0.00
2013-2-13,58,48,40,41,37,32,83,67,41,30.19,30.05,16,3,16,0.00
2013-2-14,69,55,41,45,38,35,79,57,34,30.14,30.02,8,2,8,0.00
2013-2-15,53,48,37,39,30,20,68,51,33,30.41,30.11,13,4,13,0.00
2013-2-16,57,45,30,32,28,22,74,52,35,30.44,30.19,8,2,8,0.00
2013-2-17,71,56,37,45,34,28,74,48,23,30.19,29.95,18,6,22,0.00
2013-2-18,78,63,53,57,45,32,82,55,25,30.17,29.81,24,8,24,0.00
2013-2-19,61,53,42,34,28,20,60,39,21,30.35,30.15,13,4,13,0.00
2013-2-20,52,46,43,40,38,33,83,73,48,30.20,29.79,15,6,15,0.00
2013-2-21,67,53,43,45,37,29,91,59,24,29.97,29.65,17,6,17,0.01
2013-2-22,49,41,33,38,28,24,77,60,45,30.18,29.95,11,4,11,0.00
2013-2-23,55,45,33,34,30,25,74,57,40,30.13,29.95,10,2,10,0.00
2013-2-24,69,53,35,47,38,28,76,58,39,29.96,29.64,17,5,17,0.00
2013-2-25,62,52,41,50,40,31,83,66,38,29.74,29.53,27,8,27,0.01
2013-2-26,59,48,40,36,33,31,71,58,40,29.93,29.74,26,8,26,0.00
2013-2-27,59,48,38,34,29,22,77,51,27,30.27,29.91,20,6,20,0.00
2013-2-28,59,48,37,32,28,24,68,47,29,30.34,30.21,19,6,19,0.00
2013-3-1,56,46,34,34,29,24,71,53,37,30.34,30.20,10,2,10,0.08
2013-3-2,55,44,33,29,27,25,73,53,33,30.46,30.26,13,4,13,0.00
2013-3-3,71,56,38,42,31,24,56,41,26,30.26,29.83,19,7,19,0.00
2013-3-4,86,69,56,48,41,33,62,41,16,29.84,29.64,17,6,17,0.00
2013-3-5,64,52,45,44,26,17,62,38,21,30.40,29.84,24,9,24,0.00
2013-3-6,61,49,34,26,22,18,62,36,20,30.49,30.23,8,2,8,0.00
2013-3-7,70,56,40,38,28,20,51,35,16,30.27,30.12,18,5,18,0.00
2013-3-8,61,58,54,57,52,38,90,79,51,30.21,30.01,15,7,15,0.00
2013-3-9,70,64,60,65,60,55,92,88,83,30.01,29.68,24,9,24,0.91
2013-3-10,55,50,42,37,34,32,71,54,47,30.13,30.00,20,6,20,0.00
2013-3-11,60,47,34,34,28,22,78,51,25,30.18,30.03,17,3,17,0.00
2013-3-12,67,54,39,34,30,26,62,42,26,30.35,30.07,12,3,12,0.00
2013-3-13,69,56,41,42,37,32,74,50,33,30.48,30.33,13,2,13,0.00
2013-3-14,78,62,46,47,42,36,71,50,33,30.39,30.20,16,4,16,0.01
2013-3-15,82,69,56,55,48,43,79,50,28,30.20,29.93,17,6,17,0.02
2013-3-16,82,70,58,59,54,46,79,56,43,29.93,29.73,19,9,19,0.00
2013-3-17,76,68,60,60,55,48,83,65,46,29.85,29.72,17,4,17,0.02
2013-3-18,71,64,57,62,50,41,90,62,44,30.04,29.69,14,4,14,0.00
2013-3-19,68,60,48,48,41,34,69,51,36,30.15,29.99,12,4,12,0.00
2013-3-20,68,59,49,39,33,23,61,40,22,30.34,30.07,14,2,14,0.00
2013-3-21,70,61,52,58,45,31,79,56,42,30.08,29.60,21,8,21,0.00
2013-3-22,65,55,47,59,50,43,88,81,68,29.88,29.60,14,5,14,0.00
2013-3-23,57,51,45,51,47,43,94,87,80,29.94,29.71,15,3,15,0.72
2013-3-24,54,47,39,48,31,20,90,57,37,30.21,29.86,23,10,23,0.01
2013-3-25,56,46,33,28,22,17,62,41,25,30.43,30.21,15,4,15,0.00
2013-3-26,59,47,31,30,26,20,73,47,27,30.53,30.32,8,2,8,0.00
2013-3-27,70,56,38,44,35,25,60,46,31,30.33,30.11,20,6,20,0.00
2013-3-28,71,61,50,58,52,42,86,71,58,30.25,30.11,19,6,19,0.00
2013-3-29,77,67,59,59,57,55,87,71,51,30.22,30.02,15,7,15,0.00
2013-3-30,78,68,55,64,59,51,92,75,61,30.17,29.92,13,4,13,0.30
2013-3-31,75,68,61,63,58,51,89,70,49,30.04,29.84,14,4,14,0.00
2013-4-1,80,68,52,57,51,46,84,58,34,30.12,29.96,11,2,11,0.00
2013-4-2,69,65,55,64,59,46,90,81,61,30.05,29.92,13,5,13,0.56
2013-4-3,55,49,45,49,46,43,92,88,72,30.18,29.95,12,4,12,1.57
2013-4-4,51,46,42,43,41,40,91,82,73,30.24,30.14,13,5,13,0.01
2013-4-5,68,55,40,50,45,36,88,70,49,30.29,30.06,11,3,11,0.01
2013-4-6,76,65,55,59,53,47,80,67,52,30.06,29.87,20,8,20,0.01
2013-4-7,73,67,61,63,60,56,87,79,71,29.94,29.78,21,8,21,0.00
2013-4-8,76,71,66,66,63,58,83,76,69,29.81,29.70,20,10,20,0.00
2013-4-9,80,73,69,68,65,62,87,76,64,29.74,29.66,21,10,22,0.00
2013-4-10,74,48,41,68,43,36,89,81,65,30.02,29.74,16,8,20,0.27
2013-4-11,63,51,40,41,36,30,79,59,39,30.01,29.86,10,3,11,0.00
2013-4-12,76,62,44,51,45,38,81,56,33,30.03,29.90,11,2,11,0.00
2013-4-13,77,66,53,53,49,44,76,54,38,30.03,29.82,16,5,16,0.00
2013-4-14,83,70,56,67,58,48,83,68,52,29.83,29.59,18,6,18,0.00
2013-4-15,86,76,68,69,66,64,89,72,54,29.80,29.65,19,8,19,0.00
2013-4-16,87,78,71,69,67,64,85,70,53,29.93,29.79,18,8,18,0.00
2013-4-17,86,77,72,70,68,67,91,75,56,29.92,29.67,23,10,23,0.00
2013-4-18,76,57,48,71,47,35,91,71,52,30.19,29.60,21,9,21,1.15
2013-4-19,64,53,40,38,34,27,77,52,27,30.32,30.17,15,4,15,0.00
2013-4-20,71,58,43,39,36,31,71,47,25,30.24,30.04,19,5,19,0.00
2013-4-21,72,61,48,53,47,38,75,61,51,30.22,30.09,13,4,13,0.00
2013-4-22,79,67,53,61,54,46,83,65,50,30.13,29.87,18,5,18,0.00
2013-4-23,67,56,43,62,49,37,91,79,70,30.22,29.83,18,8,18,0.00
2013-4-24,60,50,38,42,36,31,86,61,40,30.35,30.21,16,4,16,0.04
2013-4-25,73,63,53,47,42,35,58,47,33,30.37,30.18,12,3,12,0.00
2013-4-26,77,67,60,67,56,45,85,69,52,30.19,30.01,14,5,14,0.00
2013-4-27,76,70,60,66,60,52,91,73,55,30.16,30.02,12,3,12,0.00
2013-4-28,80,67,53,67,58,48,90,75,59,30.09,29.89,9,2,9,0.00
2013-4-29,86,74,61,69,62,56,86,67,44,29.95,29.83,14,4,14,0.03
2013-4-30,82,71,60,66,61,55,89,71,52,29.87,29.77,16,5,16,0.00
2013-5-1,80,72,65,68,64,60,92,77,58,30.00,29.81,13,3,13,0.00
2013-5-2,72,53,45,62,45,36,84,74,67,30.37,29.97,24,9,24,0.00
2013-5-3,46,44,42,36,35,34,71,70,67,30.35,30.32,13,7,16,0.00
2013-5-4,69,62,56,38,34,27,46,36,24,30.06,29.96,6,2,6,0.00
2013-5-5,71,60,48,47,42,36,69,54,40,30.20,30.05,12,3,12,0.01
2013-5-6,79,65,49,55,50,43,82,61,39,30.17,30.04,8,1,8,0.00
2013-5-7,85,73,56,59,54,50,81,55,34,30.12,29.96,10,2,10,0.01
2013-5-8,85,75,62,64,57,53,74,55,39,30.03,29.90,14,4,14,0.00
2013-5-9,75,69,66,65,62,56,91,81,54,30.04,29.88,14,4,14,0.01
2013-5-10,81,72,66,68,63,58,93,75,52,30.09,29.91,8,2,8,0.00
2013-5-11,80,71,62,59,53,46,79,56,35,30.21,30.07,11,3,11,0.00
2013-5-12,78,69,58,54,45,37,71,46,25,30.31,30.18,9,2,9,0.00
2013-5-13,88,74,57,57,49,42,61,44,29,30.27,30.15,11,4,11,0.00
2013-5-14,87,76,61,62,56,51,75,53,32,30.21,30.01,14,5,14,0.00
2013-5-15,77,73,67,70,67,61,89,81,65,30.09,29.78,17,7,17,0.41
2013-5-16,82,72,63,72,66,60,91,84,71,29.86,29.78,13,4,13,0.01
2013-5-17,89,80,73,74,72,69,92,78,60,29.89,29.81,15,5,15,0.00
2013-5-18,92,85,75,74,71,67,83,64,51,29.92,29.79,17,7,17,0.00
2013-5-19,89,80,71,72,69,64,85,69,57,29.88,29.71,20,9,20,0.15
2013-5-20,90,81,73,72,70,67,85,70,56,29.86,29.68,28,9,28,0.00
2013-5-21,82,73,61,71,66,56,85,79,66,29.92,29.70,23,6,23,0.54
2013-5-22,86,72,55,66,58,51,90,67,38,29.99,29.88,8,2,8,0.01
2013-5-23,84,76,69,73,69,62,92,78,69,30.10,29.91,17,3,17,0.19
2013-5-24,78,78,76,70,70,69,78,76,75,30.05,30.01,9,2,10,0.00
2013-5-25,73,73,72,69,69,68,88,87,86,30.12,30.07,7,2,7,0.05
2013-5-26,87,78,71,74,70,68,92,78,61,30.12,29.96,15,6,15,0.02
2013-5-27,85,78,71,72,69,66,87,75,61,30.02,29.83,15,6,15,0.16
2013-5-28,85,79,72,70,69,67,85,71,59,29.93,29.78,19,7,19,0.00
2013-5-29,84,77,73,74,70,67,85,79,70,29.85,29.75,25,9,25,0.13
2013-5-31,85,82,80,74,73,72,77,73,67,29.77,29.73,14,5,14,0.11
2013-6-1,90,81,76,76,72,68,82,75,60,29.99,29.75,17,5,17,0.11
2013-6-2,86,77,68,69,58,48,78,55,31,30.12,29.98,13,2,13,0.00
2013-6-3,90,76,62,63,59,54,82,57,36,30.04,29.88,10,2,10,0.00
2013-6-4,91,81,69,70,67,61,84,63,45,30.01,29.81,17,5,17,0.20
2013-6-5,90,82,73,71,68,66,82,65,49,29.98,29.79,16,4,16,0.00
2013-6-6,78,75,70,70,67,65,88,77,68,30.00,29.86,15,2,15,1.14
2013-6-7,85,75,64,66,60,53,87,62,37,30.06,29.92,10,2,10,0.01
2013-6-8,88,77,62,64,61,56,84,60,42,29.99,29.83,13,3,13,0.00
2013-6-9,88,78,68,72,68,62,92,71,53,29.99,29.89,18,3,18,0.39
2013-6-10,98,84,69,74,67,59,86,60,29,30.01,29.94,8,2,10,0.00
2013-6-11,93,84,73,76,70,64,87,65,49,30.07,29.96,13,4,13,0.00
2013-6-12,94,85,75,75,71,68,85,65,47,30.10,29.96,12,4,12,0.14
2013-6-13,99,88,75,74,70,67,78,58,41,30.10,29.93,9,2,9,0.00
2013-6-14,96,84,73,74,70,67,83,65,44,30.04,29.92,7,1,7,0.00
2013-6-15,92,84,77,75,71,68,78,66,50,30.05,29.92,6,2,6,0.00
2013-6-16,80,79,76,70,70,69,79,74,70,30.00,29.96,4,0,4,0.05
2013-6-17,94,89,83,76,74,72,75,62,53,29.99,29.89,9,2,9,0.96
2013-6-18,85,78,72,75,70,66,88,76,63,30.06,29.91,14,3,14,0.20
2013-6-19,94,81,71,76,71,66,89,72,49,30.03,29.89,10,2,10,0.00
2013-6-20,93,84,75,74,70,67,86,64,46,30.09,29.96,13,4,13,0.17
2013-6-21,94,86,75,74,69,65,83,60,41,30.11,29.99,13,5,13,0.00
2013-6-22,95,86,73,74,69,65,80,59,42,30.08,29.91,15,5,15,0.00
2013-6-23,95,86,76,74,69,66,82,59,41,30.03,29.91,17,6,17,0.00
2013-6-24,94,86,75,73,69,66,83,58,41,30.07,29.92,18,6,18,0.14
2013-6-25,97,88,78,74,69,64,78,55,38,30.03,29.87,16,7,16,0.00
2013-6-26,98,88,76,74,70,63,80,57,45,30.00,29.89,18,6,18,0.00
2013-6-27,101,86,78,75,71,67,75,62,41,30.07,29.94,9,4,9,0.00
2013-6-28,102,97,83,71,68,64,59,40,30,29.98,29.86,14,3,14,0.00
2013-6-29,97,87,74,72,66,59,78,51,30,29.96,29.84,8,2,11,0.01
2013-6-30,93,84,73,66,60,56,73,48,30,29.99,29.86,13,3,13,0.00
2013-7-1,88,79,70,63,57,52,65,47,33,30.08,29.98,11,2,11,0.00
2013-7-2,88,79,66,60,54,45,70,46,24,30.14,30.04,10,2,10,0.06
2013-7-3,86,80,77,56,54,51,48,41,31,30.02,29.99,1,0,2,0.00
2013-7-4,96,84,70,65,59,53,69,46,25,30.05,29.92,11,3,11,0.00
2013-7-5,98,85,71,66,61,58,69,46,29,30.04,29.89,10,3,10,0.00
2013-7-6,97,86,74,69,62,55,67,46,27,29.99,29.88,12,3,12,0.16
2013-7-7,97,87,75,72,66,60,71,50,35,30.05,29.95,10,3,12,0.00
2013-7-8,97,86,77,74,70,63,79,60,41,30.13,30.02,15,4,15,0.00
2013-7-9,100,89,76,73,66,62,80,50,29,30.17,30.01,12,4,12,0.00
2013-7-10,102,92,80,73,68,63,73,49,30,30.11,29.94,10,3,10,0.15
2013-7-11,105,90,82,74,69,64,66,52,32,30.02,29.92,14,3,14,0.00
2013-7-12,101,89,76,74,69,65,78,54,34,30.02,29.91,10,2,10,0.00
2013-7-13,101,90,80,73,68,61,71,49,34,30.04,29.90,10,3,10,0.00
2013-7-14,85,74,69,68,64,59,88,73,45,30.07,29.92,6,2,7,0.79
2013-7-15,73,70,68,71,67,64,93,90,88,30.12,30.01,7,2,7,1.02
2013-7-16,87,81,71,75,72,68,93,76,62,30.20,30.11,13,4,13,0.03
2013-7-17,83,78,74,76,72,70,87,81,75,30.23,30.18,11,1,11,0.09
2013-7-18,94,80,72,76,72,68,92,78,49,30.23,30.05,17,1,17,0.62
2013-7-19,97,83,74,76,72,67,90,70,43,30.10,29.96,15,2,15,0.01
2013-7-20,98,84,74,76,71,68,86,68,42,30.03,29.89,8,2,8,0.00
2013-7-21,99,86,75,76,72,69,86,65,42,29.98,29.88,12,4,12,0.00
2013-7-22,97,87,77,77,73,70,87,65,45,30.03,29.90,12,5,12,0.15
2013-7-23,99,89,79,79,73,67,81,60,44,30.02,29.87,14,5,14,0.00
2013-7-24,97,86,78,76,71,67,79,61,43,30.10,29.90,12,3,12,0.00
2013-7-25,85,81,77,73,70,67,77,71,58,30.06,30.01,6,2,6,0.00
2013-7-26,97,84,78,77,73,70,82,70,46,30.06,29.90,14,3,14,0.99
2013-7-27,88,80,74,73,68,63,82,67,45,30.07,29.94,9,3,9,0.00
2013-7-28,92,81,69,72,68,63,86,67,49,30.04,29.91,10,2,10,0.00
2013-7-29,95,86,77,76,72,65,86,65,43,30.04,29.95,14,5,14,0.00
2013-7-30,98,88,78,74,70,65,79,58,41,30.12,29.99,13,5,13,0.00
2013-7-31,102,89,80,74,70,65,71,55,39,30.11,29.95,11,3,11,0.00
2013-8-1,101,91,78,76,72,69,75,55,38,30.04,29.92,8,2,8,0.00
2013-8-2,104,92,79,73,69,65,72,50,34,29.99,29.91,14,3,14,0.00
2013-8-3,100,90,79,73,68,64,71,50,35,30.05,29.96,10,3,10,0.16
2013-8-4,101,90,80,74,69,65,74,53,35,30.11,29.96,12,3,12,0.00
2013-8-5,103,91,80,71,68,63,71,49,32,30.05,29.88,10,3,10,0.00
2013-8-6,103,88,79,72,69,63,72,54,34,29.95,29.88,14,4,14,0.01
2013-8-7,92,91,89,65,65,64,45,43,41,29.88,29.84,3,2,3,0.17
2013-8-8,103,92,80,74,68,62,74,49,32,29.94,29.81,12,4,12,0.00
2013-8-9,103,90,81,74,67,61,69,49,28,30.02,29.86,9,3,9,0.00
2013-8-10,85,82,80,69,68,65,70,63,54,30.04,30.01,4,1,4,0.00
2013-8-11,99,92,87,69,69,67,56,47,36,30.09,29.99,14,3,14,0.18
2013-8-12,100,90,77,74,70,66,75,53,37,30.10,29.96,11,2,11,0.00
2013-8-13,99,87,79,75,70,66,83,59,43,30.06,29.92,14,3,14,0.11
2013-8-14,91,81,74,77,74,69,90,79,55,30.09,29.98,20,2,20,1.74
2013-8-15,88,79,72,72,68,65,88,71,53,30.11,29.99,9,2,9,0.00
2013-8-16,87,78,70,69,65,62,84,65,50,30.11,30.01,8,2,8,0.01
2013-8-17,89,79,68,64,61,57,77,57,39,30.15,30.01,8,2,8,0.00
2013-8-18,90,80,67,68,64,60,80,60,43,30.15,30.03,8,1,8,0.00
2013-8-19,95,82,70,69,64,60,79,57,33,30.12,29.97,12,1,12,0.00
2013-8-20,96,84,70,68,63,59,75,52,31,30.09,29.99,9,1,9,0.00
2013-8-21,96,85,72,71,66,62,76,54,41,30.13,30.02,10,2,10,0.00
2013-8-22,90,85,79,69,68,66,66,57,50,30.08,29.99,2,0,2,0.00
2013-8-23,98,89,78,75,70,65,75,55,36,30.08,29.93,10,2,10,0.21
2013-8-24,96,85,78,68,67,66,70,57,38,30.09,29.99,10,1,10,0.00
2013-8-25,96,88,78,72,68,65,71,54,39,30.18,30.08,12,3,12,0.00
2013-8-27,81,79,77,69,68,68,74,69,65,30.10,30.09,1,0,1,0.00
2013-8-28,98,84,72,74,67,63,81,59,35,30.16,30.03,8,1,10,0.00
2013-8-29,102,92,73,72,67,64,76,46,31,30.12,29.99,8,1,8,0.00
2013-8-30,103,90,75,71,65,60,70,47,27,30.06,29.90,7,1,7,0.00
2013-8-31,104,91,78,72,65,62,67,45,27,29.95,29.83,8,1,8,0.18
2013-9-1,104,92,80,72,67,63,64,45,29,29.93,29.81,9,2,9,0.00
2013-9-2,90,83,78,75,72,68,82,68,50,30.06,29.90,8,1,8,0.07
2013-9-3,100,86,76,72,68,60,79,57,36,30.05,29.92,9,2,9,0.00
2013-9-4,99,85,72,72,66,62,75,56,31,30.09,29.98,9,2,9,0.15
2013-9-5,92,89,85,65,65,64,50,45,40,30.10,30.05,4,1,4,0.00
2013-9-6,100,88,75,73,67,64,75,52,32,30.14,29.99,8,1,8,0.00
2013-9-7,98,87,77,73,67,62,72,53,33,30.09,29.95,18,2,18,0.00
2013-9-8,96,84,70,73,67,63,82,57,38,30.04,29.90,12,2,12,0.19
2013-9-9,94,84,71,72,67,64,81,57,39,30.06,29.94,13,3,13,0.00
2013-9-10,93,83,75,73,67,63,80,61,40,30.14,30.03,10,2,10,0.00
2013-9-11,95,83,70,73,67,63,79,59,38,30.17,30.04,11,2,11,0.00
2013-9-12,95,85,72,72,68,65,79,58,41,30.12,29.97,7,1,7,0.17
2013-9-13,96,86,74,72,67,65,78,56,38,30.02,29.87,8,2,8,0.00
2013-9-14,93,85,77,69,66,62,69,53,40,30.01,29.90,10,4,10,0.00
2013-9-15,95,86,76,72,66,61,65,52,42,30.08,29.98,10,2,10,0.00
2013-9-16,95,85,74,73,66,62,76,55,36,30.14,30.01,8,2,8,0.16
2013-9-17,91,82,76,70,67,64,71,60,46,30.12,30.02,9,1,9,0.00
2013-9-18,96,86,78,73,66,62,71,53,34,30.06,29.91,13,3,13,0.00
2013-9-19,90,82,74,73,69,64,89,66,51,30.04,29.91,11,3,11,0.79
2013-9-20,75,73,70,71,70,65,93,90,84,29.98,29.89,11,3,11,2.28
2013-9-21,82,72,62,65,55,47,87,60,30,30.03,29.91,10,3,10,0.00
2013-9-22,82,70,57,61,55,50,84,61,35,29.99,29.84,8,1,8,0.00
2013-9-23,86,72,58,59,56,52,82,60,34,29.92,29.79,11,2,11,0.00
2013-9-24,92,78,65,71,61,55,84,60,32,29.99,29.88,10,1,10,0.17
2013-9-25,94,78,60,64,57,53,80,52,27,29.96,29.82,13,1,13,0.00
2013-9-26,94,78,68,63,56,53,65,48,30,29.93,29.84,15,2,15,0.00
2013-9-27,88,80,70,72,67,57,74,64,54,29.97,29.87,13,4,13,0.00
2013-9-28,83,75,68,77,70,62,88,83,75,30.10,29.91,13,4,13,0.69
2013-9-29,81,71,64,63,59,52,84,67,38,30.11,29.96,10,3,10,0.07
2013-9-30,86,72,57,63,58,52,85,63,34,29.98,29.86,9,1,9,0.00
2013-10-1,87,75,64,72,65,59,89,73,46,29.99,29.88,11,2,11,0.00
2013-10-2,87,78,72,73,70,68,91,78,58,30.02,29.90,13,4,13,0.19
2013-10-3,89,80,73,74,71,68,90,75,54,29.98,29.84,14,5,14,0.00
2013-10-4,86,77,72,72,69,68,89,78,58,29.96,29.87,11,4,11,0.00
2013-10-5,79,57,53,68,50,44,86,79,56,30.16,29.91,10,3,10,0.38
2013-10-6,74,61,51,52,46,36,88,62,26,30.18,30.07,14,3,14,0.11
2013-10-7,61,54,50,49,45,43,79,74,65,30.16,30.13,2,0,2,0.00
2013-10-8,81,66,50,53,48,44,82,55,32,30.15,30.02,9,1,9,0.00
2013-10-9,82,69,56,59,53,48,80,59,39,30.12,30.01,11,2,11,0.00
2013-10-10,83,72,60,66,60,53,85,66,49,30.09,29.92,14,3,14,0.01
2013-10-11,86,76,69,72,67,61,85,75,62,29.98,29.86,14,6,14,0.00
2013-10-12,90,81,71,77,71,65,83,73,60,30.12,29.95,10,3,10,0.00
2013-10-13,76,72,68,69,66,64,88,83,76,30.25,30.09,9,2,9,0.00
2013-10-14,74,71,69,72,69,66,94,91,84,30.17,29.95,13,4,13,1.15
2013-10-15,78,66,54,72,63,51,93,90,82,30.13,29.94,13,5,13,0.99
2013-10-16,64,58,53,53,51,47,94,79,57,30.14,30.05,9,3,9,0.32
2013-10-17,72,60,47,52,48,42,84,67,39,30.18,30.02,6,1,6,0.00
2013-10-18,69,60,53,56,52,47,87,76,55,30.16,29.94,14,2,14,0.00
2013-10-19,65,53,43,47,42,38,85,67,43,30.26,30.12,15,4,15,0.00
2013-10-20,70,57,43,48,44,38,85,64,40,30.12,29.92,14,4,14,0.00
2013-10-21,72,60,54,62,53,47,87,76,64,30.14,29.94,10,3,10,0.00
2013-10-22,75,60,44,50,46,39,83,62,35,30.21,30.07,7,2,7,0.00
2013-10-23,81,64,47,55,50,42,83,62,34,30.17,30.07,7,1,7,0.00
2013-10-24,82,68,54,55,50,45,75,54,35,30.30,30.11,8,1,8,0.00
2013-10-25,69,61,52,51,48,43,78,63,52,30.41,30.26,12,2,12,0.00
2013-10-26,75,64,56,65,57,49,87,77,68,30.27,30.05,14,4,14,0.54
2013-10-27,69,63,60,61,58,55,90,82,72,30.17,30.05,6,1,6,0.01
2013-10-28,74,67,58,68,62,54,92,85,76,30.14,30.03,12,3,12,0.00
2013-10-29,76,72,69,70,67,65,91,87,81,30.12,30.02,13,5,13,0.00
2013-10-30,72,69,66,69,66,64,94,91,87,30.06,29.83,13,5,13,0.17
2013-10-31,75,68,53,68,56,43,95,68,33,29.92,29.73,22,4,22,0.01
2013-11-1,76,62,49,54,48,43,85,63,40,30.14,29.84,12,3,12,0.00
2013-11-2,68,58,48,44,40,35,74,53,33,30.33,30.14,10,3,12,0.00
2013-11-3,66,55,41,48,41,36,81,62,41,30.25,29.98,14,4,14,0.00
2013-11-4,60,57,54,58,53,48,93,86,69,30.12,30.02,10,3,10,0.79
2013-11-5,69,65,60,67,63,58,94,93,92,30.07,29.96,13,4,13,0.05
2013-11-6,70,56,46,67,49,39,93,78,60,30.39,29.99,15,5,15,0.10
2013-11-7,63,51,39,45,40,35,85,69,38,30.53,30.39,6,1,6,0.00
2013-11-8,66,54,41,49,42,37,86,66,40,30.42,30.15,11,2,11,0.00
2013-11-9,68,60,55,55,50,45,76,68,59,30.24,30.13,14,4,14,0.00
2013-11-10,65,57,50,54,50,45,84,76,65,30.36,30.23,5,1,5,0.00
2013-11-11,74,59,46,57,50,42,86,73,54,30.31,30.19,7,1,7,0.00
2013-11-12,59,49,38,55,35,20,87,60,32,30.70,30.31,17,5,17,0.00
2013-11-13,52,41,30,31,26,22,75,58,39,30.70,30.39,7,1,7,0.00
2013-11-14,59,47,32,46,32,25,78,60,29,30.39,30.04,13,4,13,0.00
2013-11-15,72,61,51,58,52,45,89,74,56,30.04,29.87,12,4,12,0.00
2013-11-16,78,70,62,68,63,58,89,79,61,29.90,29.71,16,7,16,0.00
2013-11-17,87,76,64,69,56,40,88,53,28,30.04,29.75,15,4,15,0.00
2013-11-18,71,64,57,41,34,30,45,33,24,30.20,30.04,12,3,12,0.00
2013-11-19,68,61,55,40,37,34,57,43,31,30.21,30.04,16,4,16,0.00
2013-11-20,66,58,48,54,46,38,78,66,54,30.06,29.91,14,5,14,0.00
2013-11-21,73,64,43,70,61,39,94,89,77,30.25,29.97,18,4,18,0.75
2013-11-22,43,36,34,39,33,31,92,89,84,30.46,30.25,19,8,19,0.23
2013-11-23,41,37,35,37,34,28,93,87,70,30.55,30.45,12,4,12,0.05
2013-11-24,36,34,33,28,26,23,80,72,64,30.58,30.35,8,3,9,0.02
2013-11-25,37,35,33,34,32,27,92,88,74,30.36,30.16,8,2,8,0.63
2013-11-26,51,43,35,38,32,27,92,68,47,30.40,30.17,19,7,19,0.01
2013-11-27,47,37,29,27,22,18,74,56,33,30.49,30.35,12,3,12,0.00
2013-11-28,53,40,28,33,27,21,78,61,42,30.46,30.36,9,2,9,0.00
2013-11-29,58,44,29,44,34,23,81,68,49,30.52,30.36,9,2,9,0.00
2013-11-30,66,53,41,53,45,35,88,76,63,30.37,30.17,13,4,13,0.00
2013-12-1,69,59,50,59,53,46,92,81,68,30.18,29.94,12,2,12,0.00
2013-12-2,68,55,43,54,45,39,87,71,42,29.94,29.70,8,1,8,0.01
2013-12-3,76,58,43,50,42,38,84,58,30,29.71,29.55,10,1,10,0.00
2013-12-4,79,63,49,59,47,39,75,58,41,29.91,29.62,10,2,10,0.00
2013-12-5,52,36,30,39,26,20,90,68,56,30.20,29.91,16,7,16,0.05
2013-12-6,32,28,24,29,24,20,91,85,79,30.52,30.13,11,1,11,0.10
2013-12-7,26,23,20,23,19,15,88,82,78,30.54,30.26,9,3,9,0.00
2013-12-8,34,30,26,31,27,22,92,87,85,30.28,30.06,5,1,5,0.01
2013-12-9,33,32,29,31,28,22,94,85,73,30.43,30.15,12,3,12,0.02
2013-12-10,38,30,21,25,21,15,78,70,56,30.53,30.35,12,2,12,0.25
2013-12-11,47,35,25,34,27,20,84,72,55,30.60,30.32,7,2,7,0.13
2013-12-12,48,39,27,35,30,22,82,72,59,30.61,30.31,6,1,6,0.00
2013-12-13,46,43,40,44,38,33,93,83,75,30.31,29.82,11,5,11,0.02
2013-12-14,46,42,33,44,36,26,93,81,65,30.35,29.80,18,5,18,0.01
2013-12-15,60,44,29,38,32,24,83,63,39,30.37,30.24,9,1,9,0.00
2013-12-16,65,51,36,40,35,29,76,57,37,30.27,30.16,9,2,9,0.00
2013-12-17,68,51,35,43,36,28,79,57,33,30.32,30.21,6,1,6,0.00
2013-12-18,69,54,36,48,41,30,81,64,40,30.28,30.01,13,4,13,0.00
2013-12-19,72,62,53,61,55,47,89,77,63,30.01,29.78,21,8,21,0.00
2013-12-20,68,60,37,62,55,34,89,85,75,29.88,29.78,16,6,16,0.00
2013-12-21,52,43,35,50,41,32,94,92,89,29.81,29.60,8,2,8,1.50
2013-12-22,44,38,33,42,32,26,93,78,65,30.40,29.79,11,6,11,0.00
2013-12-23,46,36,27,32,27,22,85,71,53,30.55,30.39,3,1,3,0.00
2013-12-24,51,39,27,36,30,22,83,70,51,30.54,30.26,12,4,12,0.00
2013-12-25,59,45,35,45,35,29,84,69,49,30.43,30.26,8,3,8,0.00
2013-12-26,53,40,32,36,30,28,83,71,42,30.45,30.35,6,2,6,0.00
2013-12-27,57,43,31,41,34,26,83,70,53,30.47,30.35,4,1,4,0.00
2013-12-28,60,48,34,45,38,29,86,70,52,30.30,30.01,6,3,6,0.00
2013-12-29,48,39,31,42,33,26,88,81,75,30.29,29.96,10,4,10,0.00
2013-12-30,44,36,29,26,23,19,78,61,44,30.42,30.27,10,3,10,0.00
2013-12-31,53,40,26,31,26,20,79,60,39,30.45,30.22,10,2,10,0.00
2014-1-1,68,49,34,48,36,26,80,62,44,30.24,29.89,19,6,19,0.00
2014-1-2,42,34,25,26,20,18,72,59,45,30.50,30.24,21,6,21,0.00